EJU37FN LIMC-EHAM

Flight info

Callsign EJU37FN
Flight time 0h 59m
Altitude 34000
Route DOGUB6TXAOSTA5W/35R AOSTA DCT ORSUD DCT MOLUS DCT GILIR DCT PENDU DCT IXILU DCT EPL DCT ROUSY DCT KOMOB DCT BUB Y28 HELEN
Aircraft A320/M-SDE3FGHIRWY/LB1

Departure

Time 2026-05-05 22:23
Airport Milan Malpensa International Airport (LIMC)

Arrival

Time 2026-05-05 23:23
Airport Amsterdam Airport Schiphol (EHAM)
Time Latitude Longitude Altitude Speed Heading
2026-05-05 21:53 45.62828 8.71446 741 ft 0 kts 169°
2026-05-05 22:08 45.62844 8.71442 741 ft 3 kts 162°
2026-05-05 22:08 45.62859 8.71432 740 ft 2 kts 152°
2026-05-05 22:08 45.62874 8.71418 740 ft 3 kts 124°
2026-05-05 22:09 45.62881 8.71396 741 ft 3 kts 88°
2026-05-05 22:09 45.62881 8.71383 741 ft 0 kts 70°
2026-05-05 22:13 45.62882 8.71386 741 ft 2 kts 70°
2026-05-05 22:13 45.62892 8.71403 739 ft 4 kts 50°
2026-05-05 22:13 45.62925 8.71465 741 ft 8 kts 61°
2026-05-05 22:13 45.62937 8.71535 741 ft 7 kts 79°
2026-05-05 22:14 45.62945 8.71592 739 ft 5 kts 79°
2026-05-05 22:14 45.62950 8.71635 741 ft 4 kts 79°
2026-05-05 22:14 45.62954 8.71665 741 ft 3 kts 79°
2026-05-05 22:14 45.62955 8.71724 741 ft 8 kts 107°
2026-05-05 22:15 45.62894 8.71766 741 ft 12 kts 171°
2026-05-05 22:15 45.62795 8.71792 741 ft 17 kts 169°
2026-05-05 22:15 45.62680 8.71822 741 ft 13 kts 169°
2026-05-05 22:15 45.62633 8.71836 741 ft 4 kts 168°
2026-05-05 22:16 45.62579 8.71851 741 ft 12 kts 170°
2026-05-05 22:16 45.62473 8.71880 741 ft 20 kts 169°
2026-05-05 22:16 45.62312 8.71924 741 ft 27 kts 169°
2026-05-05 22:16 45.62187 8.72013 741 ft 17 kts 98°
2026-05-05 22:17 45.62165 8.72166 741 ft 16 kts 148°
2026-05-05 22:17 45.62050 8.72197 741 ft 18 kts 170°
2026-05-05 22:17 45.61914 8.72234 741 ft 22 kts 170°
2026-05-05 22:17 45.61756 8.72275 741 ft 25 kts 169°
2026-05-05 22:18 45.61578 8.72325 741 ft 28 kts 168°
2026-05-05 22:18 45.61394 8.72409 742 ft 25 kts 133°
2026-05-05 22:18 45.61241 8.72529 742 ft 27 kts 167°
2026-05-05 22:18 45.61091 8.72609 742 ft 17 kts 121°
2026-05-05 22:19 45.61095 8.72788 742 ft 20 kts 79°
2026-05-05 22:19 45.61119 8.72974 742 ft 13 kts 77°
2026-05-05 22:19 45.61136 8.73044 741 ft 6 kts 45°
2026-05-05 22:19 45.61163 8.73079 742 ft 4 kts 40°
2026-05-05 22:20 45.61183 8.73103 742 ft 3 kts 39°
2026-05-05 22:20 45.61231 8.73149 742 ft 18 kts 33°
2026-05-05 22:20 45.61347 8.73250 740 ft 20 kts 27°
2026-05-05 22:20 45.61488 8.73246 741 ft 21 kts 348°
2026-05-05 22:21 45.61615 8.73270 742 ft 17 kts 57°
2026-05-05 22:21 45.61630 8.73433 741 ft 17 kts 108°
2026-05-05 22:21 45.61588 8.73578 742 ft 15 kts 93°
2026-05-05 22:21 45.61618 8.73715 741 ft 15 kts 45°
2026-05-05 22:22 45.61698 8.73720 742 ft 0 kts 349°
2026-05-05 22:22 45.61702 8.73719 742 ft 4 kts 349°
2026-05-05 22:23 45.61949 8.73648 741 ft 72 kts 348°
2026-05-05 22:23 45.62647 8.73454 742 ft 130 kts 348°
2026-05-05 22:23 45.63693 8.73163 783 ft 171 kts 348°
2026-05-05 22:23 45.64850 8.72839 1373 ft 171 kts 349°
2026-05-05 22:24 45.65971 8.72260 1919 ft 180 kts 325°
2026-05-05 22:24 45.66899 8.70889 2129 ft 207 kts 299°
2026-05-05 22:24 45.67281 8.68821 2521 ft 222 kts 268°
2026-05-05 22:24 45.66906 8.66694 3249 ft 223 kts 239°
2026-05-05 22:25 45.65868 8.65122 3971 ft 223 kts 210°
2026-05-05 22:25 45.64392 8.64485 4714 ft 225 kts 180°
2026-05-05 22:25 45.62836 8.64665 5498 ft 224 kts 169°
2026-05-05 22:25 45.61352 8.65374 6237 ft 226 kts 159°
2026-05-05 22:26 45.59884 8.66208 6953 ft 228 kts 158°
2026-05-05 22:26 45.58418 8.67096 7664 ft 229 kts 158°
2026-05-05 22:26 45.56950 8.68002 8395 ft 231 kts 158°
2026-05-05 22:26 45.55474 8.68916 9141 ft 232 kts 158°
2026-05-05 22:27 45.53978 8.69796 9810 ft 237 kts 165°
2026-05-05 22:27 45.52327 8.70077 10344 ft 242 kts 186°
2026-05-05 22:27 45.50732 8.69513 10974 ft 245 kts 205°
2026-05-05 22:27 45.49376 8.68210 11464 ft 257 kts 225°
2026-05-05 22:28 45.48436 8.65953 11668 ft 282 kts 253°
2026-05-05 22:28 45.48426 8.63082 11861 ft 310 kts 282°
2026-05-05 22:28 45.49103 8.60036 12017 ft 335 kts 286°
2026-05-05 22:28 45.49909 8.56805 12150 ft 357 kts 288°
2026-05-05 22:29 45.50788 8.53412 12453 ft 371 kts 288°
2026-05-05 22:29 45.51694 8.49935 13050 ft 376 kts 288°
2026-05-05 22:29 45.52598 8.46418 13715 ft 379 kts 287°
2026-05-05 22:29 45.53483 8.42915 14298 ft 382 kts 287°
2026-05-05 22:30 45.54374 8.39339 14888 ft 385 kts 286°
2026-05-05 22:30 45.55263 8.35734 15470 ft 388 kts 286°
2026-05-05 22:30 45.56154 8.32096 16064 ft 390 kts 286°
2026-05-05 22:30 45.57047 8.28437 16647 ft 393 kts 286°
2026-05-05 22:31 45.57950 8.24738 17231 ft 396 kts 286°
2026-05-05 22:31 45.58859 8.21013 17814 ft 399 kts 286°
2026-05-05 22:31 45.59778 8.17256 18373 ft 402 kts 286°
2026-05-05 22:31 45.60691 8.13522 18836 ft 405 kts 285°
2026-05-05 22:32 45.61624 8.09714 19303 ft 408 kts 285°
2026-05-05 22:32 45.62564 8.05873 19759 ft 411 kts 285°
2026-05-05 22:32 45.63509 8.01998 20196 ft 414 kts 285°
2026-05-05 22:32 45.64449 7.98115 20579 ft 416 kts 285°
2026-05-05 22:33 45.65396 7.94190 20932 ft 419 kts 285°
2026-05-05 22:33 45.66349 7.90242 21334 ft 422 kts 285°
2026-05-05 22:33 45.67301 7.86317 21771 ft 425 kts 285°
2026-05-05 22:33 45.68268 7.82325 22160 ft 427 kts 285°
2026-05-05 22:34 45.69238 7.78295 22553 ft 429 kts 285°
2026-05-05 22:34 45.70209 7.74243 22918 ft 432 kts 284°
2026-05-05 22:34 45.71184 7.70167 23292 ft 435 kts 284°
2026-05-05 22:34 45.72162 7.66078 23637 ft 437 kts 284°
2026-05-05 22:35 45.73150 7.61951 23892 ft 439 kts 284°
2026-05-05 22:35 45.74142 7.57804 24208 ft 441 kts 284°
2026-05-05 22:35 45.75134 7.53647 24527 ft 442 kts 284°
2026-05-05 22:35 45.76126 7.49468 24849 ft 444 kts 284°
2026-05-05 22:36 45.77103 7.45337 25148 ft 445 kts 284°
2026-05-05 22:36 45.78147 7.41147 25442 ft 449 kts 289°
2026-05-05 22:36 45.79602 7.37144 25733 ft 456 kts 298°
2026-05-05 22:36 45.81527 7.33491 26012 ft 463 kts 308°
2026-05-05 22:37 45.83889 7.30302 26278 ft 471 kts 318°
2026-05-05 22:37 45.86556 7.27546 26516 ft 474 kts 321°
2026-05-05 22:37 45.89257 7.24812 26769 ft 476 kts 321°
2026-05-05 22:37 45.91966 7.22066 27014 ft 477 kts 321°
2026-05-05 22:38 45.94642 7.19344 27226 ft 478 kts 320°
2026-05-05 22:38 45.97358 7.16574 27441 ft 479 kts 320°
2026-05-05 22:38 46.00068 7.13803 27721 ft 478 kts 320°
2026-05-05 22:38 46.02774 7.11036 28050 ft 477 kts 320°
2026-05-05 22:39 46.05474 7.08272 28354 ft 476 kts 320°
2026-05-05 22:39 46.08166 7.05504 28667 ft 475 kts 320°
2026-05-05 22:39 46.10848 7.02740 29009 ft 473 kts 319°
2026-05-05 22:39 46.13513 6.99985 29349 ft 472 kts 320°
2026-05-05 22:40 46.16144 6.97268 29651 ft 470 kts 320°
2026-05-05 22:40 46.18792 6.94535 29834 ft 468 kts 319°
2026-05-05 22:40 46.21443 6.91799 30057 ft 468 kts 319°
2026-05-05 22:40 46.24086 6.89069 30320 ft 467 kts 319°
2026-05-05 22:41 46.26724 6.86338 30620 ft 466 kts 319°
2026-05-05 22:41 46.29358 6.83609 30915 ft 466 kts 319°
2026-05-05 22:41 46.31983 6.80884 31210 ft 465 kts 319°
2026-05-05 22:41 46.34605 6.78158 31486 ft 464 kts 319°
2026-05-05 22:42 46.37226 6.75431 31747 ft 464 kts 319°
2026-05-05 22:42 46.39805 6.72744 31999 ft 463 kts 318°
2026-05-05 22:42 46.42416 6.70018 32256 ft 463 kts 318°
2026-05-05 22:42 46.45130 6.67463 32497 ft 468 kts 326°
2026-05-05 22:43 46.48053 6.65349 32753 ft 471 kts 329°
2026-05-05 22:43 46.51003 6.63280 33008 ft 470 kts 329°
2026-05-05 22:43 46.53947 6.61219 33285 ft 470 kts 329°
2026-05-05 22:43 46.56891 6.59152 33564 ft 470 kts 328°
2026-05-05 22:44 46.59831 6.57079 33833 ft 469 kts 328°
2026-05-05 22:44 46.65682 6.52934 33928 ft 473 kts 328°
2026-05-05 22:45 46.71604 6.48738 33926 ft 473 kts 329°
2026-05-05 22:45 46.77471 6.44583 33928 ft 473 kts 329°
2026-05-05 22:46 46.94713 6.32260 33933 ft 472 kts 329°
2026-05-05 22:46 47.18143 6.15420 33927 ft 472 kts 329°
2026-05-05 22:47 47.42866 6.03471 33919 ft 485 kts 358°
2026-05-05 22:47 47.69884 6.04042 33904 ft 485 kts 358°
2026-05-05 22:48 47.96778 6.04835 33898 ft 482 kts 358°
2026-05-05 22:48 48.23496 6.05669 33870 ft 479 kts 359°
2026-05-05 22:49 48.49915 6.06778 33877 ft 477 kts
2026-05-05 22:49 48.76436 6.08041 33847 ft 476 kts 360°
2026-05-05 22:50 49.02889 6.09300 33845 ft 475 kts 360°
2026-05-05 22:50 49.29264 6.10607 33837 ft 474 kts 360°
2026-05-05 22:51 49.54194 6.04328 33808 ft 457 kts 320°
2026-05-05 22:51 49.74395 5.82206 33815 ft 457 kts 321°
2026-05-05 22:51 49.80896 5.76787 31614 ft 421 kts 12°
2026-05-05 22:52 49.81411 5.79295 20961 ft 405 kts 165°
2026-05-05 22:52 49.78325 5.80447 20775 ft 385 kts 170°
2026-05-05 22:52 49.76059 5.81279 25182 ft 353 kts 171°
2026-05-05 22:52 49.73815 5.81926 25094 ft 338 kts 182°
2026-05-05 22:53 49.71575 5.81280 25085 ft 314 kts 204°
2026-05-05 22:53 49.69588 5.80192 25084 ft 318 kts 191°
2026-05-05 22:53 49.67321 5.80423 25080 ft 342 kts 164°
2026-05-05 22:53 49.62838 5.86927 25300 ft 388 kts 131°
2026-05-05 22:54 49.60944 5.91569 25076 ft 420 kts 113°
2026-05-05 22:54 49.60774 6.00679 25129 ft 453 kts 71°
2026-05-05 22:54 49.68527 6.10091 25542 ft 468 kts
2026-05-05 22:54 49.79008 6.00579 26121 ft 460 kts 305°
2026-05-05 22:55 49.80998 5.96674 26204 ft 463 kts 304°
2026-05-05 22:55 49.82964 5.92793 26368 ft 465 kts 305°
2026-05-05 22:55 49.85005 5.88910 26610 ft 465 kts 306°
2026-05-05 22:55 49.87109 5.85097 26870 ft 465 kts 307°
2026-05-05 22:56 49.89256 5.81351 27138 ft 465 kts 308°
2026-05-05 22:56 49.91428 5.77637 27406 ft 464 kts 308°
2026-05-05 22:56 49.93602 5.73934 27687 ft 463 kts 308°
2026-05-05 22:56 49.95757 5.70238 27962 ft 462 kts 308°
2026-05-05 22:57 49.97869 5.66576 28238 ft 461 kts 307°
2026-05-05 22:57 49.99970 5.62893 28523 ft 460 kts 307°
2026-05-05 22:57 50.05192 5.53559 29246 ft 458 kts 308°
2026-05-05 22:57 50.08703 5.47511 29717 ft 457 kts 308°
2026-05-05 22:58 50.13627 5.38837 30264 ft 458 kts 311°
2026-05-05 22:58 50.18838 5.32522 30711 ft 463 kts 322°
2026-05-05 22:58 50.24144 5.26822 31182 ft 463 kts 322°
2026-05-05 22:58 50.29422 5.21086 31663 ft 462 kts 322°
2026-05-05 22:59 50.39833 5.09701 32613 ft 460 kts 322°
2026-05-05 22:59 50.50303 4.98218 33572 ft 458 kts 322°
2026-05-05 22:59 50.60299 4.87194 33840 ft 454 kts 322°
2026-05-05 23:00 50.75320 4.70518 33880 ft 457 kts 322°
2026-05-05 23:00 50.89208 4.54540 33910 ft 453 kts 313°
2026-05-05 23:01 50.92993 4.46694 33901 ft 447 kts 298°
2026-05-05 23:01 50.94859 4.41774 33880 ft 448 kts 299°
2026-05-05 23:01 50.98110 4.33356 33892 ft 447 kts 299°
2026-05-05 23:02 51.01352 4.25008 33903 ft 447 kts 300°
2026-05-05 23:02 51.02974 4.20802 33764 ft 447 kts 299°
2026-05-05 23:02 51.04588 4.16584 33428 ft 447 kts 299°
2026-05-05 23:03 51.06202 4.12338 32340 ft 451 kts 300°
2026-05-05 23:03 51.07844 4.08077 31392 ft 453 kts 302°
2026-05-05 23:03 51.09775 4.04091 30394 ft 457 kts 311°
2026-05-05 23:03 51.12083 4.00556 29157 ft 464 kts 320°
2026-05-05 23:04 51.14674 3.97470 28047 ft 465 kts 323°
2026-05-05 23:04 51.17245 3.94457 26852 ft 467 kts 322°
2026-05-05 23:04 51.19936 3.91522 25586 ft 470 kts 329°
2026-05-05 23:04 51.22790 3.89259 24397 ft 472 kts 337°
2026-05-05 23:05 51.26000 3.87660 23268 ft 471 kts 347°
2026-05-05 23:05 51.29215 3.86925 22482 ft 463 kts 355°
2026-05-05 23:05 51.32390 3.86799 21692 ft 456 kts 358°
2026-05-05 23:05 51.35531 3.86728 20913 ft 451 kts 358°
2026-05-05 23:06 51.39021 3.86637 20051 ft 445 kts 358°
2026-05-05 23:06 51.43091 3.86509 18856 ft 442 kts 358°
2026-05-05 23:06 51.46176 3.86419 18238 ft 437 kts 359°
2026-05-05 23:06 51.49196 3.86345 17476 ft 432 kts 359°
2026-05-05 23:07 51.52191 3.86277 16746 ft 427 kts 359°
2026-05-05 23:07 51.55145 3.86215 16011 ft 423 kts 359°
2026-05-05 23:07 51.58081 3.86151 15288 ft 420 kts 359°
2026-05-05 23:07 51.60989 3.86084 14577 ft 417 kts 359°
2026-05-05 23:08 51.63882 3.86016 13863 ft 414 kts 359°
2026-05-05 23:08 51.66756 3.85952 13104 ft 412 kts 360°
2026-05-05 23:08 51.69555 3.86320 12405 ft 407 kts 10°
2026-05-05 23:08 51.72258 3.87578 11711 ft 403 kts 22°
2026-05-05 23:09 51.77231 3.93014 10829 ft 379 kts 43°
2026-05-05 23:09 51.79878 3.96888 10654 ft 355 kts 41°
2026-05-05 23:09 51.83426 4.01937 10409 ft 326 kts 41°
2026-05-05 23:09 51.86687 4.06604 10169 ft 301 kts 41°
2026-05-05 23:10 51.89320 4.10411 9808 ft 291 kts 41°
2026-05-05 23:10 51.90829 4.12603 9685 ft 291 kts 41°
2026-05-05 23:10 51.92314 4.14761 9548 ft 291 kts 41°
2026-05-05 23:10 51.93816 4.16943 9417 ft 290 kts 41°
2026-05-05 23:11 51.95317 4.19124 9285 ft 289 kts 41°
2026-05-05 23:11 51.96812 4.21298 9154 ft 289 kts 41°
2026-05-05 23:11 51.98253 4.23551 9022 ft 288 kts 51°
2026-05-05 23:11 51.99246 4.26366 8894 ft 291 kts 64°
2026-05-05 23:12 52.00168 4.29538 8769 ft 329 kts 64°
2026-05-05 23:12 52.01166 4.32984 8641 ft 341 kts 64°
2026-05-05 23:12 52.02177 4.36485 8514 ft 343 kts 64°
2026-05-05 23:12 52.03173 4.39944 8385 ft 343 kts 64°
2026-05-05 23:13 52.04177 4.43437 8244 ft 335 kts 64°
2026-05-05 23:13 52.05120 4.46719 8111 ft 307 kts 64°
2026-05-05 23:13 52.05983 4.49733 7984 ft 282 kts 64°
2026-05-05 23:13 52.06774 4.52508 7843 ft 260 kts 64°
2026-05-05 23:14 52.07512 4.55106 7504 ft 249 kts 64°
2026-05-05 23:14 52.08234 4.57641 7041 ft 245 kts 64°
2026-05-05 23:14 52.08948 4.60142 6543 ft 243 kts 64°
2026-05-05 23:14 52.09654 4.62627 6061 ft 241 kts 64°
2026-05-05 23:15 52.10342 4.65055 5577 ft 238 kts 64°
2026-05-05 23:15 52.10971 4.67524 5091 ft 236 kts 76°
2026-05-05 23:15 52.10904 4.70150 4620 ft 235 kts 108°
2026-05-05 23:15 52.09980 4.72271 4273 ft 228 kts 143°
2026-05-05 23:16 52.08568 4.73128 4128 ft 211 kts 179°
2026-05-05 23:16 52.07214 4.72558 3884 ft 199 kts 216°
2026-05-05 23:16 52.06366 4.70870 3473 ft 193 kts 255°
2026-05-05 23:16 52.06351 4.68758 3081 ft 188 kts 297°
2026-05-05 23:17 52.07157 4.67265 3028 ft 181 kts 336°
2026-05-05 23:17 52.08362 4.66873 3000 ft 177 kts
2026-05-05 23:17 52.09484 4.67608 2983 ft 176 kts 39°
2026-05-05 23:17 52.10269 4.69134 2988 ft 177 kts 53°
2026-05-05 23:18 52.11002 4.70744 2993 ft 177 kts 53°
2026-05-05 23:18 52.11737 4.72357 2993 ft 178 kts 52°
2026-05-05 23:18 52.12472 4.73968 3003 ft 178 kts 53°
2026-05-05 23:18 52.13301 4.75449 2977 ft 178 kts 37°
2026-05-05 23:19 52.14394 4.76304 2830 ft 178 kts 15°
2026-05-05 23:19 52.15625 4.76501 2637 ft 178 kts
2026-05-05 23:19 52.16863 4.76611 2407 ft 178 kts
2026-05-05 23:19 52.18087 4.76721 2168 ft 171 kts
2026-05-05 23:20 52.19235 4.76825 1944 ft 160 kts
2026-05-05 23:20 52.20324 4.76925 1735 ft 155 kts
2026-05-05 23:20 52.21381 4.77023 1519 ft 147 kts
2026-05-05 23:20 52.22382 4.77115 1320 ft 142 kts
2026-05-05 23:21 52.23355 4.77205 1134 ft 139 kts
2026-05-05 23:21 52.24304 4.77300 960 ft 138 kts
2026-05-05 23:21 52.25267 4.77393 784 ft 139 kts
2026-05-05 23:21 52.26232 4.77481 613 ft 140 kts
2026-05-05 23:22 52.27196 4.77569 447 ft 139 kts
2026-05-05 23:22 52.28163 4.77659 258 ft 138 kts
2026-05-05 23:22 52.29132 4.77747 58 ft 139 kts
2026-05-05 23:22 52.30039 4.77827 -2 ft 115 kts
2026-05-05 23:23 52.30669 4.77882 -2 ft 66 kts
2026-05-05 23:23 52.30956 4.77908 -4 ft 21 kts
2026-05-05 23:23 52.31111 4.77920 -4 ft 24 kts
2026-05-05 23:23 52.31250 4.77932 -1 ft 20 kts
2026-05-05 23:24 52.31335 4.77845 -1 ft 15 kts 255°
2026-05-05 23:24 52.31281 4.77673 -1 ft 19 kts 268°
2026-05-05 23:24 52.31288 4.77447 -1 ft 21 kts 272°
2026-05-05 23:24 52.31295 4.77209 -1 ft 10 kts 273°
2026-05-05 23:25 52.31294 4.77109 -1 ft 8 kts 254°
2026-05-05 23:25 52.31257 4.77053 -1 ft 7 kts 214°
2026-05-05 23:25 52.31221 4.77013 -1 ft 6 kts 214°
2026-05-05 23:25 52.31190 4.76979 -1 ft 5 kts 214°
2026-05-05 23:26 52.31183 4.76956 -1 ft 1 kts 298°
2026-05-05 23:26 52.31199 4.76916 -1 ft 6 kts 301°
2026-05-05 23:26 52.31218 4.76866 -1 ft 4 kts 305°
2026-05-05 23:26 52.31227 4.76844 -1 ft 0 kts 303°
2026-05-05 23:27 52.31229 4.76839 -1 ft 0 kts 303°
2026-05-05 23:27 52.31230 4.76838 -1 ft 0 kts 303°